Yatton Keynell, United Kingdom

6:47 AM GMT on March 25, 2019 (GMT +0000)
Yatton Keynell

Weather History for 03740 - August, 1998

Change the Weather History Date:

Wednesday, August 19, 1998

  Actual Average Record
Temperature  
Mean Temperature 60 °F -  
Max Temperature 71 °F 65 °F - ()
Min Temperature 50 °F 50 °F - ()
Degree Days  
Heating Degree Days 4    
Growing Degree Days 10 (Base 50)    
Moisture  
Dew Point 49 °F    
Average Humidity 70    
Maximum Humidity 88    
Minimum Humidity 46    
Precipitation  
Precipitation 0.00 in 0.08 in - ()
Sea Level Pressure  
Sea Level Pressure 30.14 in    
Wind  
Wind Speed 3 mph ()    
Max Wind Speed 13 mph    
Max Gust Speed -    
Visibility 6.1 miles    
Events      
T = Trace of Precipitation, MM = Missing Value Source: Averaged Metar Reports

Daily Weather History Graph

Daily Weather History Graph

Search for Another Location

Airport or City:

Astronomy

Aug. 19, 1998 Rise Set
Actual Time 5:59 AM BST 8:22 PM BST
Civil Twilight 5:22 AM BST 8:59 PM BST
Nautical Twilight 4:35 AM BST 9:45 PM BST
Astronomical Twilight 3:40 AM BST 10:40 PM BST
Moon 3:05 AM BST (8/19) 6:51 PM BST (8/19)
Length of Visible Light 15h 37m
Length of Day
14h 23m
Waning Crescent, 7% of the Moon is Illuminated
Aug 19
Waning Crescent
Aug 22
New
Aug 30
First Quarter
Sep 6
Full
Sep 13
Last Quarter

Hourly Weather History & Observations

Time (BST) Temp. Dew Point Humidity Pressure Visibility Wind Dir Wind Speed Gust Speed Precip Events Conditions
12:50 AM 53.6 °F 46.4 °F 77% 30.18 in - Calm Calm - N/A   Clear
1:50 AM 53.6 °F 46.4 °F 77% 30.18 in - Calm Calm - N/A   Clear
2:50 AM 51.8 °F 46.4 °F 82% 30.18 in - NE 2.3 mph - N/A   Clear
3:50 AM 50.0 °F 46.4 °F 87% 30.18 in - Calm Calm - N/A   Clear
4:50 AM 50.0 °F 46.4 °F 87% 30.18 in 5.6 mi Calm Calm - N/A   Haze
5:50 AM 50.0 °F 44.6 °F 82% 30.18 in 5.6 mi Calm Calm - N/A   Haze
6:50 AM 50.0 °F 46.4 °F 87% 30.18 in - Calm Calm - N/A   Clear
7:50 AM 51.8 °F 48.2 °F 88% 30.18 in - Calm Calm - N/A   Clear
8:50 AM 55.4 °F 50.0 °F 82% 30.18 in - Calm Calm - N/A   Clear
9:50 AM 60.8 °F 50.0 °F 68% 30.18 in - South 3.5 mph - N/A   Clear
10:50 AM 64.4 °F 48.2 °F 56% 30.18 in - WSW 6.9 mph - N/A   Clear
11:50 AM 66.2 °F 50.0 °F 56% 30.18 in 6.2 mi SW 4.6 mph - N/A   Scattered Clouds
12:50 PM 68.0 °F 50.0 °F 52% 30.15 in 6.2 mi WSW 8.1 mph - N/A   Partly Cloudy
1:50 PM 69.8 °F 48.2 °F 46% 30.15 in 6.2 mi West 9.2 mph - N/A   Scattered Clouds
2:50 PM 71.6 °F 50.0 °F 46% 30.12 in 6.2 mi SW 9.2 mph - N/A   Partly Cloudy
3:50 PM 71.6 °F 50.0 °F 46% 30.12 in 6.2 mi WSW 9.2 mph - N/A   Partly Cloudy
4:50 PM 71.6 °F 51.8 °F 50% 30.09 in 6.2 mi West 10.4 mph - N/A   Partly Cloudy
5:50 PM 69.8 °F 50.0 °F 49% 30.09 in 6.2 mi WSW 12.7 mph - N/A   Partly Cloudy
6:50 PM 66.2 °F 50.0 °F 56% 30.09 in - WSW 11.5 mph - N/A   Clear
7:50 PM 62.6 °F 51.8 °F 68% 30.09 in - WSW 9.2 mph - N/A   Clear
8:50 PM 59.0 °F 51.8 °F 77% 30.09 in - WSW 8.1 mph - N/A   Clear
9:50 PM 57.2 °F 51.8 °F 82% 30.12 in - SW 8.1 mph - N/A   Clear
10:50 PM 55.4 °F 51.8 °F 88% 30.09 in - WSW 8.1 mph - N/A   Clear
11:50 PM 57.2 °F 51.8 °F 82% 30.09 in 6.2 mi WSW 6.9 mph - N/A   Mostly Cloudy